Find Starlink 31263

NORAD ID: 58832 Int'l Des: 2024-017 Owner: SPXS Country: US Constellation: starlink operational
LEOCIRCULAR

Live Position

Loading 3D Globe...

About Starlink 31263

Description loading...

Upcoming Passes

Passes for default location (London). Set your location on the main map for personalized predictions.

Altitude History

Loading altitude history...

Two-Line Element Set

1 58832U 24017G 26109.84363424 .00001847 00000-0 74480-4 0 9999
2 58832 53.1615 2.7495 0001381 88.3116 271.8043 15.30193933126614
Epoch: Apr 19, 2026 • Age: 7 hours

Current Status

Altitude 484.6 km
Velocity 7.62 km/s
Sub-Earth Point -29.07°S, 54.35°W
Launch Date Jan 24, 2024
Age 2.2 years
Type internet

Technical Details

Classification Payload
Mass 730.00 kg
Dry Mass 700.00 kg
Total Mass 730.00 kg
Length 0.30 m
Diameter 4.10 m
Span 29.00 m
Shape Box + pan
Manufacturer SPXS
Bus Type Starlink V2M
Phase Status In Orbit
Owner/State SPXS/US

Most Searched